GEESAT-6 06

Last updated on Mon Oct 20 2025 00:02:06 GMT+0000 (Coordinated Universal Time)

1 65718U 25214G 25292.23489888 .00006572 00000+0 67603-3 0 9995 2 65718 49.9905 345.8464 0012112 24.7932 335.3590 14.91256245 3722
UTC large
Height (km)
Speed (km/s)
/
Latitude / Longitude
Inclination (degrees)
Orbital Period (minutes)
Azimuth
Elevation
Range (km)
Doppler Factor

Next 0 passes for location: London (51.5072 / 0.1276)

Sorry there are no passes over London.